Regional Weather Roundup
Issued by NWS

Home | Current Version | Previous Version | Graphics & Text | Print | Product List | Glossary On
Versions: 1 2 3 4 5 6 7 8 9 10 11 12 13 14 15 16 17 18 19 20 21 22 23 24 25 26 27 28 29 30 31 32 33 34 35 36 37 38 39 40 41 42 43 44 45 46 47 48 49 50
000
ASUS43 KMPX 271010
RWRMN
WEATHER ROUNDUP FOR MINNESOTA
NATIONAL WEATHER SERVICE TWIN CITIES/CHANHASSEN MN
500 AM CDT THU APR 27 2017


NOTE: "FAIR" INDICATES FEW OR NO CLOUDS BELOW 12,000 FEET WITH NO
SIGNIFICANT WEATHER AND/OR OBSTRUCTIONS TO VISIBILITY. N/A MEANS
CURRENT SKY AND/OR WEATHER CONDITIONS ARE NOT AVAILABLE.

MNZ060>063-068>070-271100-
   Twin Cities Metro

CITY           SKY/WX    TMP DP  RH WIND       PRES   REMARKS
TWIN CITIES    FLURRIES  34  31  88 N8        29.53F WCI  27
ST PAUL        LGT SNOW  34  32  92 N8        29.54S FOG     WCI  27
CRYSTAL        CLOUDY    33  30  88 N7        29.52F FOG     WCI  27
LAKEVILLE      CLOUDY    34  34 100 NW8       29.52F WCI  27
EDEN PRAIRIE   LGT SNOW  34  31  88 NW10G18   29.52F FOG     WCI  26
SOUTH ST PAUL  CLOUDY    35  31  85 N7        29.52F WCI  29
LAKE ELMO      CLOUDY    34  32  93 N7        29.53S WCI  28
$$
MNZ001>005-007-008-013>017-022>024-027-028-271100-
   Northwest Minnesota

CITY           SKY/WX    TMP DP  RH WIND       PRES   REMARKS
BEMIDJI        CLOUDY    22  19  87 N7        29.63R WCI  13
HALLOCK        PTCLDY    27  21  80 N5        29.75S WCI  21
ROSEAU         LGT SNOW  25  21  86 N8        29.72S WCI  16
WARROAD        LGT SNOW  25  21  86 NE17      29.72R VSB 1   WCI  11
THIEF RVR FALL FLURRIES  24  20  84 N7        29.71S WCI  16
CROOKSTON      FLURRIES  25  23  93 NE5       29.73S WCI  19
FOSSTON        CLOUDY    21  18  86 N13       29.67S WCI   9
DETROIT LAKES  CLOUDY    27  23  86 N3        29.63F
MOORHEAD       CLOUDY    27  25  93 N7        29.69S WCI  19
PARK RAPIDS    CLOUDY    25  18  74 N10       29.60R WCI  15
MAHNOMEN       CLOUDY    24  20  87 N5        29.65S WCI  18
$$
MNZ006-009>011-018-025>026-271100-
   North Central Minnesota

CITY           SKY/WX    TMP DP  RH WIND       PRES   REMARKS
BAUDETTE       LGT SNOW  22  17  81 NE12      29.67F VSB 1   WCI  10
FLAG ISLAND    LGT SNOW  25  19  80 NE20G25   29.71S WCI  11
INTL FALLS     CLOUDY    21  13  71 NE10G20   29.64F WCI  10
WASKISH        CLOUDY    21  19  93 N6        29.65F WCI  14
BIG FORK       FLURRIES  21  18  86 MISG      29.61S
LONGVILLE      CLOUDY    23  19  86 N5        29.60R WCI  17
GRAND RAPIDS   CLOUDY    22  19  89 N10       29.60  WCI  11
CRANE LAKE     CLOUDY    19  16  86 N5        29.63F WCI  13
ORR            LGT SNOW  19  16  86 CALM      29.57S
COOK           CLOUDY    21  18  86 N5        29.59S WCI  15
WALKER         CLOUDY    22  17  81 N8        29.61R WCI  13
$$
MNZ012-019>021-037-271100-
   Northeast Minnesota

CITY           SKY/WX    TMP DP  RH WIND       PRES   REMARKS
DULUTH         CLOUDY    23  20  88 N9        29.53F WCI  13
ELY            CLOUDY    19  16  86 N5        29.56S WCI  13
HIBBING        CLOUDY    21  18  88 N10       29.57S WCI  10
EVELETH        CLOUDY    22  18  84 N7        29.58R WCI  14
DULUTH HARBOR  CLOUDY    28  25  86 N12       29.58S WCI  18
TWO HARBORS    CLOUDY    27  21  80 N7        29.54S WCI  19
SILVER BAY     CLOUDY    25  21  86 CALM      29.53S
GRAND MARAIS     N/A     24  19  81 N9G17     29.56  WCI  14
G MARAIS ARPRT CLOUDY    16  12  86 CALM      29.50S
$$
MNZ029>031-032-039>041-046>048-054>057-064-271100-
   West Central Minnesota

CITY           SKY/WX    TMP DP  RH WIND       PRES   REMARKS
FERGUS FALLS   CLOUDY    28  25  86 N12       29.63F WCI  18
WHEATON        CLOUDY    28  25  86 NW13G18   29.66F WCI  18
MORRIS         CLOUDY    28  28 100 NW14      29.60S FOG     WCI  17
ALEXANDRIA     CLOUDY    28  24  85 N10       29.59S WCI  19
ELBOW LAKE     CLOUDY    29  26  89 NW12G17   29.61F WCI  19
WADENA         CLOUDY    25  21  86 N6        29.59S WCI  18
GLENWOOD       CLOUDY    28  27  93 N8        29.59R WCI  20
APPLETON       CLOUDY    30  25  80 NW15      29.62S WCI  19
BENSON         CLOUDY    32  27  80 N12       29.61S WCI  23
ORTONVILLE     CLOUDY    28  23  80 NW15G22   29.64R WCI  17
MADISON        CLOUDY    30  28  93 NW15G24   29.63S WCI  19
WILLMAR        FLURRIES  32  28  86 NW9       29.60R WCI  24
$$
MNZ033>034-036-042>043-049>051-058-059-271100-
   Central Minnesota

CITY           SKY/WX    TMP DP  RH WIND       PRES   REMARKS
ST CLOUD       CLOUDY    30  29  96 NW8       29.56S FOG     WCI  22
SAUK CENTRE    CLOUDY    28  25  86 N9        29.58S WCI  20
PAYNESVILLE    CLOUDY    30  30 100 N6        29.59R WCI  24
AITKIN         CLOUDY    27  19  74 N8        29.57S WCI  18
PINE RIVER     CLOUDY    25  21  86 N5        29.63R WCI  19
BRAINERD       CLOUDY    26  23  88 N8        29.59R WCI  18
STAPLES        CLOUDY    25  23  93 N9        29.59S WCI  15
LONG PRAIRIE   CLOUDY    28  25  86 CALM      29.59R
LITTLE FALLS   CLOUDY    28  25  86 N6        29.59R WCI  22
LITCHFIELD     MIX PCPN  32  30  93 N9        29.57S WCI  24
BUFFALO        CLOUDY    32  30  93 NW7       29.56F FOG     WCI  25
MAPLE LAKE     CLOUDY    32  32 100 NW7       29.56F FOG     WCI  26
HUTCHINSON     CLOUDY    32  31  96 NW12      29.57F FOG     WCI  23
$$
MNZ037-044-045-052-053-271100-
   East Central Minnesota

CITY           SKY/WX    TMP DP  RH WIND       PRES   REMARKS
PRINCETON      CLOUDY    32  30  93 N9        29.56S WCI  24
MORA           CLOUDY    30  25  80 N6        29.58R WCI  24
CAMBRIDGE      LGT SNOW  34  28  80 NW7       29.53S WCI  28
RUSH CITY      CLOUDY    30  27  88 N9        29.55R WCI  22
MOOSE LAKE     CLOUDY    27  23  86 N9        29.54S WCI  17
HINCKLEY       CLOUDY    30  27  86 N9        29.56S WCI  22
CLOQUET        CLOUDY    25  21  86 N10       29.54F WCI  15
MCGREGOR       CLOUDY    27  23  86 N7        29.57S WCI  19
$$
MNZ071>073-080-081-089-090-097-098-271100-
   Southwest Minnesota

CITY           SKY/WX    TMP DP  RH WIND       PRES   REMARKS
MONTEVIDEO     CLOUDY    28  28 100 N14G21    29.61S WCI  17
GRANITE FALLS  MIX PCPN  32  30  94 W15       29.62S WCI  21
CANBY          CLOUDY    30  26  84 W15       29.64R WCI  19
MARSHALL       CLOUDY    29  27  92 NW16      29.61S WCI  17
REDWOOD FALLS  CLOUDY    31  28  89 NW10      29.59S WCI  22
OLIVIA         CLOUDY    32  32 100 NW12      29.58R WCI  23
PIPESTONE      CLOUDY    28  21  74 N16       29.60S WCI  17
WINDOM         CLOUDY    30  28  93 NW16      29.58F WCI  19
WORTHINGTON    CLOUDY    28  26  92 NW16      29.61R WCI  16
JACKSON        CLOUDY    30  28  93 NW17      29.59S FOG     WCI  18
TRACY          CLOUDY    30  29  96 NW17      29.61S WCI  18
SLAYTON        CLOUDY    28  24  87 NW17      29.60S WCI  15
$$
MNZ065>067-074>077-082>085-091>093-271100-
   South Central Minnesota

CITY           SKY/WX    TMP DP  RH WIND       PRES   REMARKS
MANKATO        LGT SNOW  32  30  92 NW10      29.55F FOG     WCI  24
NEW ULM        LGT SNOW  30  30 100 NW14      29.57F WCI  20
ST JAMES       CLOUDY    30  30 100 NW12      29.59S FOG     WCI  21
FAIRMONT       CLOUDY    31  29  92 NW16      29.58S WCI  20
GLENCOE        LGT SNOW  32  32 100 NW9       29.56S WCI  24
FARIBAULT      CLOUDY    34  32  93 NW7G16    29.53F WCI  28
OWATONNA       CLOUDY    34  30  86 NW14      29.52F WCI  24
WASECA         CLOUDY    32  32 100 W14       29.55S WCI  22
ALBERT LEA     LGT SNOW  32  30  93 NW9       29.52S WCI  24
$$
MNZ078>079-086>088-094>096-271100-
   Southeast Minnesota

CITY           SKY/WX    TMP DP  RH WIND       PRES   REMARKS
ROCHESTER      CLOUDY    34  33  96 NW15      29.48F WCI  24
RED WING       CLOUDY    36  28  75 N7        29.50F
STANTON        CLOUDY    36  33  88 NW8       29.51F
DODGE CENTER   CLOUDY    34  32  93 NW13      29.49F WCI  25
WINONA         CLOUDY    36  32  87 NW14      29.47F
AUSTIN         CLOUDY    34  30  86 NW14G20   29.50S WCI  24
PRESTON        CLOUDY    34  32  92 NW14      29.48S WCI  25
$$
ABBREVIATIONS USED IN REMARKS
   TC - TEMPERATURES IN CELSIUS
  WCI - WIND CHILL INDEX
   HX - HEAT INDEX
  VSB - VISIBILITY
$$




USA.gov is the U.S. government's official web portal to all federal, state and local government web resources and services.